TAM3079 SBFL-SBSP

Flight info

Callsign TAM3079
Flight time 0h 46m
Altitude 31000
Route UBROS UM540 ANISE
Aircraft A320/M-SDE3FGHIRWY/LB1

Departure

Time 2026-04-25 23:05
Airport Hercílio Luz International Airport (SBFL)

Arrival

Time 2026-04-25 23:52
Airport Congonhas–Deputado Freitas Nobre Airport (SBSP)
Time Latitude Longitude Altitude Speed Heading
2026-04-25 22:36 -27.67252 -48.54581 32 ft 0 kts 211°
2026-04-25 22:58 -27.67245 -48.54577 32 ft 2 kts 211°
2026-04-25 22:58 -27.67234 -48.54565 32 ft 2 kts 238°
2026-04-25 22:59 -27.67228 -48.54550 32 ft 2 kts 261°
2026-04-25 22:59 -27.67228 -48.54533 32 ft 2 kts 284°
2026-04-25 22:59 -27.67231 -48.54522 32 ft 0 kts 299°
2026-04-25 22:59 -27.67236 -48.54515 32 ft 0 kts 302°
2026-04-25 23:00 -27.67235 -48.54515 32 ft 0 kts 302°
2026-04-25 23:02 -27.67228 -48.54529 32 ft 4 kts 303°
2026-04-25 23:02 -27.67204 -48.54573 32 ft 8 kts 300°
2026-04-25 23:02 -27.67157 -48.54623 32 ft 10 kts 341°
2026-04-25 23:02 -27.67087 -48.54603 32 ft 12 kts 29°
2026-04-25 23:03 -27.67017 -48.54635 33 ft 12 kts 305°
2026-04-25 23:03 -27.66967 -48.54726 33 ft 14 kts 301°
2026-04-25 23:03 -27.66912 -48.54829 33 ft 16 kts 302°
2026-04-25 23:03 -27.66854 -48.54940 34 ft 16 kts 301°
2026-04-25 23:04 -27.66793 -48.55053 34 ft 17 kts 303°
2026-04-25 23:04 -27.66697 -48.55128 34 ft 17 kts 345°
2026-04-25 23:04 -27.66597 -48.55138 35 ft 10 kts 28°
2026-04-25 23:04 -27.66575 -48.55097 34 ft 6 kts 107°
2026-04-25 23:05 -27.66623 -48.55010 34 ft 36 kts 121°
2026-04-25 23:05 -27.66900 -48.54497 33 ft 112 kts 121°
2026-04-25 23:05 -27.67417 -48.53540 72 ft 167 kts 121°
2026-04-25 23:05 -27.68008 -48.52404 759 ft 167 kts 119°
2026-04-25 23:06 -27.68574 -48.51276 1525 ft 170 kts 120°
2026-04-25 23:06 -27.69158 -48.50113 2197 ft 179 kts 111°
2026-04-25 23:06 -27.69097 -48.48665 2678 ft 200 kts 66°
2026-04-25 23:06 -27.68116 -48.47498 3172 ft 218 kts 32°
2026-04-25 23:07 -27.66771 -48.46599 3736 ft 234 kts 29°
2026-04-25 23:07 -27.65349 -48.45632 4478 ft 241 kts 29°
2026-04-25 23:07 -27.63928 -48.44635 5247 ft 239 kts 28°
2026-04-25 23:07 -27.62504 -48.43620 5820 ft 245 kts 28°
2026-04-25 23:08 -27.61074 -48.42593 6706 ft 246 kts 28°
2026-04-25 23:08 -27.59640 -48.41560 7567 ft 248 kts 27°
2026-04-25 23:08 -27.58169 -48.40502 8367 ft 252 kts 27°
2026-04-25 23:08 -27.56689 -48.39436 9128 ft 257 kts 27°
2026-04-25 23:09 -27.55162 -48.38348 9882 ft 261 kts 25°
2026-04-25 23:09 -27.53557 -48.37410 10622 ft 263 kts 18°
2026-04-25 23:09 -27.51806 -48.36598 11127 ft 278 kts 16°
2026-04-25 23:09 -27.49966 -48.35789 11549 ft 295 kts 16°
2026-04-25 23:10 -27.47975 -48.34916 11950 ft 313 kts 16°
2026-04-25 23:10 -27.45864 -48.33984 12329 ft 330 kts 16°
2026-04-25 23:10 -27.43712 -48.33028 12911 ft 338 kts 17°
2026-04-25 23:10 -27.41509 -48.32041 13616 ft 341 kts 17°
2026-04-25 23:11 -27.39294 -48.31050 14287 ft 345 kts 17°
2026-04-25 23:11 -27.37050 -48.30046 14914 ft 349 kts 17°
2026-04-25 23:11 -27.34782 -48.29033 15523 ft 353 kts 17°
2026-04-25 23:11 -27.32488 -48.28009 16140 ft 357 kts 17°
2026-04-25 23:12 -27.30179 -48.26981 16731 ft 361 kts 17°
2026-04-25 23:12 -27.27821 -48.25931 17304 ft 366 kts 17°
2026-04-25 23:12 -27.25438 -48.24869 17849 ft 370 kts 16°
2026-04-25 23:12 -27.23016 -48.23789 18396 ft 374 kts 16°
2026-04-25 23:13 -27.20601 -48.22710 18939 ft 377 kts 15°
2026-04-25 23:13 -27.18173 -48.21627 19461 ft 380 kts 15°
2026-04-25 23:13 -27.15695 -48.20525 19991 ft 382 kts 14°
2026-04-25 23:13 -27.13232 -48.19430 20470 ft 385 kts 14°
2026-04-25 23:14 -27.10718 -48.18314 20953 ft 387 kts 14°
2026-04-25 23:14 -27.08211 -48.17201 21428 ft 389 kts 13°
2026-04-25 23:14 -27.05698 -48.16087 21872 ft 391 kts 13°
2026-04-25 23:14 -27.03135 -48.14950 22304 ft 393 kts 12°
2026-04-25 23:15 -27.00603 -48.13828 22761 ft 395 kts 12°
2026-04-25 23:15 -26.98038 -48.12695 23197 ft 397 kts 12°
2026-04-25 23:15 -26.95457 -48.11556 23601 ft 400 kts 12°
2026-04-25 23:15 -26.92856 -48.10405 24031 ft 403 kts 12°
2026-04-25 23:16 -26.90241 -48.09250 24424 ft 406 kts 12°
2026-04-25 23:16 -26.87571 -48.08074 24853 ft 409 kts 12°
2026-04-25 23:16 -26.84861 -48.06881 25272 ft 411 kts 12°
2026-04-25 23:16 -26.82201 -48.05709 25682 ft 414 kts 12°
2026-04-25 23:17 -26.79474 -48.04510 26068 ft 417 kts 12°
2026-04-25 23:17 -26.76767 -48.03320 26476 ft 419 kts 12°
2026-04-25 23:17 -26.74076 -48.02136 26864 ft 421 kts 12°
2026-04-25 23:17 -26.71330 -48.00928 27229 ft 424 kts 12°
2026-04-25 23:18 -26.68561 -47.99713 27624 ft 426 kts 12°
2026-04-25 23:18 -26.65811 -47.98505 27999 ft 428 kts 12°
2026-04-25 23:18 -26.63024 -47.97279 28466 ft 428 kts 12°
2026-04-25 23:18 -26.60291 -47.96076 28961 ft 426 kts 12°
2026-04-25 23:19 -26.57518 -47.94859 29408 ft 427 kts 12°
2026-04-25 23:19 -26.54736 -47.93641 29832 ft 428 kts 12°
2026-04-25 23:19 -26.51975 -47.92433 30237 ft 429 kts 12°
2026-04-25 23:19 -26.49213 -47.91225 30610 ft 431 kts 12°
2026-04-25 23:20 -26.46392 -47.89989 30891 ft 433 kts 12°
2026-04-25 23:20 -26.43594 -47.88765 30905 ft 434 kts 12°
2026-04-25 23:20 -26.37976 -47.86308 30909 ft 434 kts 12°
2026-04-25 23:21 -26.32345 -47.83845 30907 ft 434 kts 12°
2026-04-25 23:21 -26.26699 -47.81381 30908 ft 434 kts 12°
2026-04-25 23:22 -26.21031 -47.78918 30909 ft 446 kts 13°
2026-04-25 23:23 -26.12434 -47.74643 30904 ft 457 kts 20°
2026-04-25 23:23 -26.06971 -47.70906 30906 ft 465 kts 28°
2026-04-25 23:24 -26.01714 -47.66723 30906 ft 465 kts 28°
2026-04-25 23:24 -25.96467 -47.62532 30901 ft 464 kts 28°
2026-04-25 23:25 -25.91202 -47.58351 30902 ft 464 kts 28°
2026-04-25 23:25 -25.85890 -47.54144 30900 ft 465 kts 28°
2026-04-25 23:26 -25.80643 -47.49994 30899 ft 463 kts 28°
2026-04-25 23:26 -25.75373 -47.45831 30900 ft 463 kts 28°
2026-04-25 23:27 -25.70109 -47.41677 30900 ft 463 kts 28°
2026-04-25 23:27 -25.64843 -47.37525 30902 ft 464 kts 28°
2026-04-25 23:28 -25.59602 -47.33398 30903 ft 462 kts 28°
2026-04-25 23:28 -25.56967 -47.31325 30791 ft 462 kts 28°
2026-04-25 23:28 -25.54339 -47.29260 30528 ft 460 kts 28°
2026-04-25 23:28 -25.51750 -47.27225 30269 ft 458 kts 28°
2026-04-25 23:29 -25.49147 -47.25178 30009 ft 457 kts 28°
2026-04-25 23:29 -25.46587 -47.23168 29751 ft 456 kts 28°
2026-04-25 23:29 -25.43990 -47.21131 29489 ft 455 kts 28°
2026-04-25 23:29 -25.41427 -47.19121 29232 ft 453 kts 28°
2026-04-25 23:30 -25.38842 -47.17095 28973 ft 452 kts 28°
2026-04-25 23:30 -25.36295 -47.15098 28715 ft 450 kts 28°
2026-04-25 23:30 -25.33736 -47.13095 28462 ft 448 kts 28°
2026-04-25 23:30 -25.31193 -47.11103 28210 ft 446 kts 28°
2026-04-25 23:31 -25.28670 -47.09129 27955 ft 444 kts 28°
2026-04-25 23:31 -25.26175 -47.07178 27705 ft 442 kts 28°
2026-04-25 23:31 -25.23662 -47.05217 27452 ft 441 kts 28°
2026-04-25 23:31 -25.21146 -47.03251 27199 ft 439 kts 28°
2026-04-25 23:32 -25.18654 -47.01304 26948 ft 437 kts 29°
2026-04-25 23:32 -25.16186 -46.99378 26690 ft 436 kts 29°
2026-04-25 23:32 -25.13692 -46.97519 26316 ft 431 kts 25°
2026-04-25 23:32 -25.11122 -46.95799 25939 ft 426 kts 24°
2026-04-25 23:33 -25.08586 -46.94140 25565 ft 424 kts 24°
2026-04-25 23:33 -25.06051 -46.92486 25188 ft 421 kts 24°
2026-04-25 23:33 -25.03561 -46.90859 24818 ft 419 kts 24°
2026-04-25 23:33 -25.01038 -46.89210 24439 ft 416 kts 25°
2026-04-25 23:34 -24.98561 -46.87589 24067 ft 413 kts 25°
2026-04-25 23:34 -24.96113 -46.85984 23696 ft 411 kts 24°
2026-04-25 23:34 -24.93647 -46.84372 23329 ft 409 kts 25°
2026-04-25 23:34 -24.91196 -46.82766 22963 ft 407 kts 25°
2026-04-25 23:35 -24.88762 -46.81173 22598 ft 404 kts 25°
2026-04-25 23:35 -24.86356 -46.79601 22240 ft 402 kts 25°
2026-04-25 23:35 -24.83952 -46.78032 21806 ft 400 kts 25°
2026-04-25 23:35 -24.81531 -46.76454 21340 ft 413 kts 25°
2026-04-25 23:36 -24.78944 -46.74781 20775 ft 439 kts 26°
2026-04-25 23:36 -24.76334 -46.73083 20214 ft 443 kts 27°
2026-04-25 23:36 -24.73700 -46.71359 19648 ft 440 kts 27°
2026-04-25 23:36 -24.71065 -46.69630 19075 ft 435 kts 27°
2026-04-25 23:37 -24.68428 -46.67906 18489 ft 431 kts 27°
2026-04-25 23:37 -24.65865 -46.66235 17913 ft 426 kts 28°
2026-04-25 23:37 -24.63333 -46.64587 17396 ft 420 kts 28°
2026-04-25 23:37 -24.60720 -46.63110 16961 ft 413 kts 17°
2026-04-25 23:38 -24.57913 -46.62501 16708 ft 404 kts 360°
2026-04-25 23:38 -24.55068 -46.62477 16674 ft 405 kts 356°
2026-04-25 23:38 -24.52239 -46.62506 16337 ft 402 kts 356°
2026-04-25 23:38 -24.49430 -46.62535 15994 ft 400 kts 356°
2026-04-25 23:39 -24.46673 -46.62553 15530 ft 395 kts 356°
2026-04-25 23:39 -24.43911 -46.62564 14909 ft 394 kts 357°
2026-04-25 23:39 -24.41180 -46.62570 14322 ft 392 kts 357°
2026-04-25 23:39 -24.38449 -46.62574 13849 ft 387 kts 357°
2026-04-25 23:40 -24.35746 -46.62577 13839 ft 389 kts 357°
2026-04-25 23:40 -24.33054 -46.62576 13853 ft 390 kts 357°
2026-04-25 23:40 -24.30312 -46.62577 13630 ft 391 kts 357°
2026-04-25 23:40 -24.27585 -46.62578 13087 ft 387 kts 358°
2026-04-25 23:41 -24.24906 -46.62578 12569 ft 383 kts 358°
2026-04-25 23:41 -24.22261 -46.62582 12068 ft 381 kts 358°
2026-04-25 23:41 -24.19597 -46.62587 11574 ft 378 kts 358°
2026-04-25 23:41 -24.16951 -46.62592 11094 ft 376 kts 358°
2026-04-25 23:42 -24.14357 -46.62597 10653 ft 371 kts 358°
2026-04-25 23:42 -24.11788 -46.62596 10261 ft 362 kts 358°
2026-04-25 23:42 -24.09298 -46.62596 10016 ft 348 kts 358°
2026-04-25 23:42 -24.06910 -46.62598 9760 ft 338 kts 358°
2026-04-25 23:43 -24.04551 -46.62598 9410 ft 330 kts 359°
2026-04-25 23:43 -24.02278 -46.62598 9060 ft 320 kts 358°
2026-04-25 23:43 -24.00070 -46.62597 8623 ft 306 kts 358°
2026-04-25 23:43 -23.97991 -46.62597 8228 ft 292 kts 358°
2026-04-25 23:44 -23.95999 -46.62596 7873 ft 279 kts 358°
2026-04-25 23:44 -23.94057 -46.62596 7535 ft 275 kts 358°
2026-04-25 23:44 -23.92185 -46.62597 7218 ft 265 kts 358°
2026-04-25 23:44 -23.90369 -46.62597 6901 ft 255 kts 358°
2026-04-25 23:45 -23.88591 -46.62597 6599 ft 247 kts 357°
2026-04-25 23:45 -23.86936 -46.62567 6298 ft 239 kts
2026-04-25 23:45 -23.85386 -46.61985 5982 ft 235 kts 32°
2026-04-25 23:45 -23.84211 -46.60790 5716 ft 227 kts 50°
2026-04-25 23:46 -23.83255 -46.59448 5506 ft 215 kts 52°
2026-04-25 23:46 -23.82377 -46.58176 5546 ft 208 kts 51°
2026-04-25 23:46 -23.81491 -46.56914 5495 ft 207 kts 51°
2026-04-25 23:46 -23.80600 -46.55687 5428 ft 202 kts 46°
2026-04-25 23:47 -23.79471 -46.54951 5354 ft 181 kts
2026-04-25 23:47 -23.78251 -46.55088 5400 ft 174 kts 339°
2026-04-25 23:47 -23.77142 -46.55637 5449 ft 172 kts 328°
2026-04-25 23:47 -23.76120 -46.56308 5390 ft 167 kts 324°
2026-04-25 23:48 -23.75167 -46.56977 5189 ft 159 kts 324°
2026-04-25 23:48 -23.74256 -46.57619 4980 ft 153 kts 324°
2026-04-25 23:48 -23.73352 -46.58252 4788 ft 150 kts 324°
2026-04-25 23:48 -23.72469 -46.58866 4605 ft 150 kts 325°
2026-04-25 23:49 -23.71588 -46.59475 4425 ft 147 kts 325°
2026-04-25 23:49 -23.70738 -46.60061 4227 ft 139 kts 324°
2026-04-25 23:49 -23.69929 -46.60621 4060 ft 138 kts 326°
2026-04-25 23:49 -23.69104 -46.61193 3886 ft 138 kts 326°
2026-04-25 23:50 -23.68289 -46.61756 3708 ft 137 kts 326°
2026-04-25 23:50 -23.67480 -46.62314 3530 ft 137 kts 326°
2026-04-25 23:50 -23.66674 -46.62871 3367 ft 137 kts 325°
2026-04-25 23:50 -23.65867 -46.63434 3204 ft 136 kts 326°
2026-04-25 23:51 -23.65059 -46.63991 3013 ft 136 kts 326°
2026-04-25 23:51 -23.64257 -46.64549 2844 ft 135 kts 326°
2026-04-25 23:51 -23.63463 -46.65099 2653 ft 135 kts 326°
2026-04-25 23:51 -23.62748 -46.65595 2607 ft 87 kts 327°
2026-04-25 23:52 -23.62378 -46.65848 2594 ft 39 kts 327°
2026-04-25 23:52 -23.62214 -46.65961 2588 ft 14 kts 323°
2026-04-25 23:52 -23.62193 -46.66024 2586 ft 10 kts 249°
2026-04-25 23:52 -23.62256 -46.66038 2587 ft 10 kts 152°
2026-04-25 23:53 -23.62317 -46.65998 2589 ft 9 kts 148°
2026-04-25 23:53 -23.62371 -46.65961 2591 ft 8 kts 148°
2026-04-25 23:53 -23.62419 -46.65928 2592 ft 7 kts 148°
2026-04-25 23:53 -23.62466 -46.65896 2594 ft 8 kts 147°
2026-04-25 23:54 -23.62514 -46.65862 2595 ft 8 kts 146°
2026-04-25 23:54 -23.62564 -46.65828 2597 ft 8 kts 150°
2026-04-25 23:54 -23.62620 -46.65809 2598 ft 7 kts 181°
2026-04-25 23:54 -23.62662 -46.65808 2598 ft 3 kts 196°
2026-04-25 23:55 -23.62682 -46.65830 2598 ft 4 kts 234°
2026-04-25 23:55 -23.62690 -46.65844 2598 ft 0 kts 238°